Location: Laas
(43.4693°N, 0.3073°E)
Time: 14:21:49
(UTC+00:00)

GRACE-FO 1 - Pass Details

Date: 25 October 2020
Orbit: 481 x 505 km, 89.0° (Epoch: 25 November)

Event Time Altitude Azimuth Distance (km) Brightness Sun altitude
Rises 17:26:44 0° 2° (N) 2,556 8.1 -5.7°
Reaches altitude 10° 17:28:50 10° 3° (N) 1,670 7.1 -6.0°
Maximum altitude 17:32:27 78° 91° (E) 499 4.5 -6.7°
Drops below altitude 10° 17:36:03 10° 177° (S) 1,655 7.4 -7.3°
Sets 17:38:07 0° 179° (S) 2,531 8.3 -7.7°
